GW3271 Weather Reports


Display with metric or nautical units.
time (UTC)temp
F
wind
direction
speed
MPH
gust
MPH
rain 1hr
in
rain 24hr
in
rain mn
in
humidity
%
barometer
mb
20260901080038 82 223 0.0 2.0 0.00 0.00 0.00 77 1016.2
20260901074544 82 0 0.0 4.0 0.00 0.00 0.00 76 1016.2
20260901073040 82 212 0.0 2.0 0.00 0.00 0.00 75 1016.2
20260901071536 83 0 0.0 3.0 0.00 0.00 0.00 74 1016.2
20260901070036 83 221 0.0 4.0 0.00 0.00 0.00 73 1016.2
20260901064537 83 0 1.0 2.0 0.00 0.00 0.00 73 1016.2
20260901063033 83 0 0.0 2.0 0.00 0.00 0.00 71 1016.2
20260901061535 84 264 0.0 3.0 0.00 0.00 0.00 69 1016.0
20260901060036 84 255 0.0 4.0 0.00 0.00 0.00 69 1015.8
20260901054535 85 264 0.0 3.0 0.00 0.00 0.00 68 1015.8
20260901053047 85 243 3.0 10.0 0.00 0.00 0.00 66 1015.8
20260901051556 85 240 0.0 3.0 0.00 0.00 0.00 67 1015.8
20260901050035 86 276 0.0 6.0 0.00 0.00 0.00 65 1015.7
20260901044535 86 288 0.0 3.0 0.00 0.00 0.00 63 1015.6
20260901043039 86 133 1.0 5.0 0.00 0.00 0.00 61 1015.7
20260901041550 87 330 0.0 5.0 0.00 0.00 0.00 60 1015.5
20260901040036 87 347 0.0 5.0 0.00 0.00 0.00 58 1015.6
20260901034536 88 45 0.0 4.0 0.00 0.00 0.00 57 1015.4
20260901033034 88 124 2.0 6.0 0.00 0.00 0.00 55 1015.3
20260901031549 89 117 1.0 5.0 0.00 0.00 0.00 52 1015.0
20260901030033 90 25 2.0 7.0 0.00 0.00 0.00 50 1014.9
20260901024536 90 0 1.0 11.0 0.00 0.00 0.00 48 1014.7
20260901023040 91 56 3.0 7.0 0.00 0.00 0.00 45 1014.4
20260901021535 92 58 2.0 6.0 0.00 0.00 0.00 43 1014.0
20260901020035 92 33 3.0 9.0 0.00 0.00 0.00 42 1013.9
20260901014542 93 74 3.0 8.0 0.00 0.00 0.00 41 1013.7
20260901013036 94 107 2.0 7.0 0.00 0.00 0.00 40 1013.7
20260901011534 94 100 1.0 6.0 0.00 0.00 0.00 39 1013.5
20260901010032 95 126 2.0 8.0 0.00 0.00 0.00 39 1013.3
20260901004537 95 92 4.0 10.0 0.00 0.00 0.00 38 1013.4
20260901003035 96 118 0.0 4.0 0.00 0.00 0.00 37 1013.4
20260901001539 96 65 4.0 8.0 0.00 0.00 0.00 36 1013.3
20260901000034 96 96 0.0 5.0 0.00 0.00 0.00 37 1013.2
20260831234535 96 63 2.0 5.0 0.00 0.00 0.00 38 1013.2
20260831233033 97 227 1.0 5.0 0.00 0.00 0.00 38 1013.1
20260831231532 97 95 3.0 7.0 0.00 0.00 0.00 37 1013.2
20260831230034 97 109 4.0 10.0 0.00 0.00 0.00 38 1013.2
20260831224532 98 268 1.0 10.0 0.00 0.00 0.00 38 1013.2
20260831223033 99 143 0.0 4.0 0.00 0.00 0.00 37 1013.4
20260831221536 99 105 1.0 5.0 0.00 0.00 0.00 37 1013.6
20260831220031 99 70 3.0 8.0 0.00 0.00 0.00 38 1013.5
20260831214533 98 65 3.0 10.0 0.00 0.00 0.00 39 1013.9
20260831213031 99 202 1.0 6.0 0.00 0.00 0.00 40 1014.0
20260831211535 98 261 1.0 3.0 0.00 0.00 0.00 40 1014.1
20260831210033 97 65 3.0 8.0 0.00 0.00 0.00 41 1014.3
20260831204531 100 58 1.0 4.0 0.00 0.00 0.00 40 1014.5
20260831203035 99 226 1.0 5.0 0.00 0.00 0.00 41 1014.8
20260831201545 98 281 1.0 7.0 0.00 0.00 0.00 42 1015.0
20260831200033 96 262 0.0 7.0 0.00 0.00 0.00 44 1015.3
20260831194532 95 290 1.0 6.0 0.00 0.00 0.00 45 1015.6
20260831193035 97 34 2.0 5.0 0.00 0.00 0.00 44 1015.9
20260831191534 97 247 2.0 10.0 0.00 0.00 0.00 44 1016.1
20260831190035 95 231 1.0 7.0 0.00 0.00 0.00 46 1016.4
20260831184536 96 65 1.0 5.0 0.00 0.00 0.00 46 1016.5
20260831183037 95 248 1.0 6.0 0.00 0.00 0.00 49 1016.7
20260831181535 95 0 2.0 7.0 0.00 0.00 0.00 49 1016.7
20260831180034 93 267 1.0 6.0 0.00 0.00 0.00 52 1017.0
20260831174536 94 90 2.0 7.0 0.00 0.00 0.00 51 1017.3
20260831173035 93 72 3.0 9.0 0.00 0.00 0.00 54 1017.4
20260831171531 92 212 1.0 5.0 0.00 0.00 0.00 56 1017.6
20260831170043 91 134 2.0 7.0 0.00 0.00 0.00 59 1017.7
20260831164535 91 248 1.0 6.0 0.00 0.00 0.00 60 1017.9
20260831163045 90 272 0.0 6.0 0.00 0.00 0.00 61 1017.8
20260831161534 90 266 1.0 6.0 0.00 0.00 0.00 60 1017.7
20260831160051 90 255 1.0 5.0 0.00 0.00 0.00 63 1017.8
20260831154559 90 206 1.0 5.0 0.00 0.00 0.00 64 1017.7
20260831153037 89 240 1.0 3.0 0.00 0.00 0.00 66 1017.6
20260831151537 88 75 1.0 5.0 0.00 0.00 0.00 67 1017.5
20260831150034 88 191 1.0 5.0 0.00 0.00 0.00 70 1017.5
20260831144533 86 107 1.0 4.0 0.00 0.00 0.00 75 1017.3
20260831143034 84 0 0.0 1.0 0.00 0.00 0.00 79 1017.2
20260831141537 81 0 0.0 4.0 0.00 0.00 0.00 83 1017.2
20260831140040 81 259 0.0 4.0 0.00 0.00 0.00 85 1016.9
20260831134534 80 262 0.0 4.0 0.00 0.00 0.00 86 1016.8
20260831133039 80 0 0.0 3.0 0.00 0.00 0.00 86 1016.5
20260831131536 80 0 0.0 2.0 0.00 0.00 0.00 88 1016.6
20260831130037 79 0 0.0 1.0 0.00 0.00 0.00 89 1016.5
20260831124535 78 214 0.0 1.0 0.00 0.00 0.00 89 1016.3
20260831123037 78 0 0.0 2.0 0.00 0.00 0.00 90 1016.2
20260831121535 78 0 0.0 0.0 0.00 0.00 0.00 89 1016.1
20260831120032 78 0 0.0 2.0 0.00 0.00 0.00 89 1016.1
20260831114546 79 0 0.0 5.0 0.00 0.00 0.00 89 1016.1
20260831113033 79 246 1.0 6.0 0.00 0.00 0.00 88 1016.2
20260831111537 79 0 0.0 4.0 0.00 0.00 0.00 88 1016.0
20260831110035 79 208 1.0 4.0 0.00 0.00 0.00 88 1016.0
20260831104538 79 229 0.0 4.0 0.00 0.00 0.00 88 1015.9
20260831103039 79 246 0.0 3.0 0.00 0.00 0.00 87 1015.9
20260831101543 79 0 1.0 6.0 0.00 0.00 0.00 87 1015.9
20260831100034 80 0 0.0 3.0 0.00 0.00 0.00 86 1016.0
20260831094538 80 257 1.0 5.0 0.00 0.00 0.00 86 1016.0
20260831093034 80 267 2.0 6.0 0.00 0.00 0.00 86 1015.9
20260831091544 80 224 1.0 5.0 0.00 0.00 0.00 86 1015.8
20260831090034 80 213 2.0 8.0 0.00 0.00 0.00 85 1015.8
20260831084534 80 247 2.0 7.0 0.00 0.00 0.00 85 1015.9
20260831083034 80 231 1.0 6.0 0.00 0.00 0.00 85 1015.9
20260831081533 80 246 1.0 5.0 0.00 0.00 0.00 84 1016.0